Weather in Mykhailivka

Ukraine / Zaporizhia Region     47˚16′05″N   35˚13′43″E
temp.,
°C
wind,
m/s
gust,
m/s
humid.,
%
clouds,
%
prec.,
mm/h
press.,
hPa
HPBL,
m
1 december, tue
tue123:00+4˚e41188100 0.0 1021421
02:00+4˚e41190100 0.0 1021509
05:00+4˚e5979100 0.0 1021742
08:00+4˚e71073100 0.0 1022897
11:00+4˚e71071100 0.0 1022849
14:00+4˚e7971100 0.0 1022970
17:00+4˚e51073100 0.0 1022722
20:00+4˚e51074100 0.0 1023713
2 december, wed
wed223:00+4˚e51080100 0.0 1023626
02:00+4˚e61080100 0.0 1024594
05:00+4˚e6108197 0.0 1023526
08:00+4˚e6118194 0.0 1024578
11:00+5˚ese61079100 0.0 1024625
14:00+5˚ese6978100 0.0 1024608
17:00+5˚ese5980100 0.0 1024552
20:00+5˚ese5981100 0.0 1024517
3 december, thu
thu323:00+4˚ese498898 0.0 1024382
02:00+4˚se498796 0.0 1025381
05:00+4˚se4889100 0.0 1025325
08:00+5˚se489298 0.1 1025318
11:00+7˚se567754 0.0 1025406
14:00+7˚se347355 0.0 1025699
17:00+6˚ese3478100 0.0 1025428
20:00+5˚ese4683100 0.0 1025306
4 december, fri
fri423:00+3˚e379170 0.0 1025178
02:00+3˚e379347 0.0 1024192
05:00+2˚e499517 0.0 1023239
08:00+3˚e4109336 0.0 1024402
11:00+6˚ese697575 0.0 1023555
14:00+8˚ese696944 0.0 1022668
17:00+5˚e612830 0.0 1022508
20:00+4˚ese613860 0.0 1023432
5 december, sat
sat523:00+3˚ese613890 0.0 1023392
02:00+2˚ese613900 0.0 1024380
05:00+2˚ese6139213 0.0 1024389
08:00+1˚ese6129130 0.0 1025419
11:00+5˚ese7107371 0.0 1025516
14:00+5˚ese697075 0.0 1025531
17:00+3˚e6127979 0.0 1025469
20:00+2˚ese6138162 0.0 1026486